GFSFLT2_925_spd_000.txt.gz
Wind_Speed
4 2 5 6 7 6 3 1 2 3 2 1 2 1 2 3 4 5 6 4 6 11 9 6 4 4 5 8 10 10 11 12
3 1 6 5 3 6 6 4 2 1 2 2 1 1 2 2 1 4 4 6 4 6 8 7 2 5 6 6 6 8 11 12
2 4 3 1 4 3 3 6 5 4 5 4 4 5 3 2 2 2 1 1 2 2 3 2 2 2 7 9 11 12 11 13
6 5 5 4 5 2 2 3 3 2 3 3 3 3 3 5 1 1 4 6 9 9 5 5 2 5 9 10 11 11 10 15
5 5 4 3 4 3 1 3 2 3 4 5 3 4 3 2 2 2 3 4 5 7 9 16 18 14 8 9 13 14 10 12
1 1 3 4 3 5 7 6 5 4 2 2 4 3 4 3 1 1 4 5 6 8 11 13 14 22 20 20 15 20 17 20
5 6 5 4 4 3 3 6 7 5 3 4 3 3 3 4 2 2 1 3 5 8 11 13 15 13 9 20 20 22 23 19
6 6 5 4 4 5 7 8 6 4 4 3 2 3 3 1 1 2 3 4 6 7 8 12 16 19 18 18 26 24 26 25
6 6 6 6 6 7 6 5 5 5 4 3 4 2 2 2 1 1 1 5 7 9 9 9 11 15 18 18 18 23 27 30
9 8 10 10 10 10 9 8 7 7 7 5 4 5 4 2 1 1 4 3 4 7 10 12 12 12 14 16 17 21 20 23
10 9 9 10 10 9 10 8 10 10 10 9 7 4 3 3 3 1 3 3 4 5 8 10 12 14 15 16 19 21 24 25
9 10 11 11 10 11 8 10 12 9 10 12 10 9 5 4 4 2 2 4 3 7 9 11 13 15 14 18 20 22 23 24
11 12 12 12 12 11 12 12 14 13 14 12 9 10 8 6 4 2 3 4 7 8 9 10 15 16 19 17 15 24 22 27
14 15 15 15 15 15 17 16 17 20 17 18 15 12 11 9 9 5 5 4 8 11 10 10 12 16 15 18 6 16 19 17
15 17 18 19 20 19 19 19 17 13 15 12 16 19 17 14 13 10 8 6 8 10 13 16 18 14 16 15 6 5 10 24
16 18 20 21 20 22 23 19 18 22 24 24 29 26 21 17 13 12 10 8 10 12 12 13 17 18 18 18 23 24 9 11
16 18 21 23 23 24 26 25 22 21 16 14 11 10 8 7 8 11 12 9 10 12 16 18 19 19 20 19 20 24 23 11
12 18 23 25 26 27 26 28 24 15 18 7 5 4 4 1 1 3 5 8 10 13 16 18 20 23 24 24 22 17 15 13
13 19 23 25 25 27 30 26 25 23 19 11 9 6 2 3 8 10 11 13 16 20 21 23 23 25 26 26 27 27 26 25
18 22 25 24 27 30 29 30 24 20 17 10 6 2 4 7 6 10 12 14 19 21 23 24 24 25 27 27 27 26 26 25

GFSFLT2_925_spd_003.txt.gz
Wind_Speed
7 7 11 11 10 9 7 5 4 3 3 3 2 3 4 5 6 4 4 4 5 5 4 4 4 3 7 12 12 13 15 16
6 5 9 9 7 9 10 8 5 4 3 4 2 2 2 3 4 5 3 3 4 6 8 9 8 7 7 7 8 10 12 14
3 8 7 5 1 6 7 8 9 9 9 8 5 3 1 2 0 3 4 5 6 6 6 7 7 7 6 7 9 12 12 13
3 1 4 3 3 4 5 6 7 8 7 7 9 8 5 4 2 2 3 6 5 6 6 7 8 9 10 11 12 14 13 11
3 1 2 5 3 2 5 5 8 8 7 7 7 7 4 6 4 4 2 2 1 2 4 10 14 16 17 13 10 11 12 12
5 2 4 6 2 6 6 10 9 9 7 5 2 3 2 5 2 4 2 2 4 6 6 7 8 10 13 17 21 22 18 16
6 2 4 4 3 4 7 9 9 6 5 6 4 6 4 5 2 2 1 2 5 9 9 11 14 15 14 15 17 18 16 17
8 3 4 5 6 8 7 8 7 7 6 4 6 6 6 7 5 4 4 4 7 8 10 11 12 14 17 17 18 20 21 21
8 4 8 8 8 8 8 7 6 7 7 7 6 6 8 6 7 5 4 3 5 6 9 10 11 10 11 14 18 21 24 24
8 3 8 7 8 8 7 11 10 10 10 9 8 7 4 4 5 7 5 1 4 7 6 8 11 13 15 15 13 15 19 21
7 8 6 6 10 8 9 13 10 11 14 12 10 9 8 5 8 6 3 3 3 4 8 10 13 15 17 17 19 21 19 22
7 6 9 10 11 11 10 9 11 12 17 15 14 11 9 9 8 8 3 5 6 4 6 8 10 15 19 20 19 21 26 23
5 6 8 11 14 12 14 13 15 16 18 15 20 16 13 12 10 9 9 6 3 2 6 9 12 12 18 17 22 22 19 27
6 11 14 16 19 20 20 19 21 23 23 20 22 18 17 16 13 14 10 8 6 6 6 6 8 11 12 13 4 16 19 20
13 15 16 19 24 25 22 23 25 20 14 21 24 23 23 22 17 13 12 8 5 5 7 11 15 9 11 8 5 4 11 21
15 15 16 17 19 28 28 28 25 31 30 24 21 26 27 23 20 17 10 5 1 1 3 9 14 16 18 17 19 21 6 11
18 19 19 18 20 23 29 32 33 25 22 24 15 14 24 23 16 9 6 3 3 3 6 11 15 18 19 21 21 23 22 9
11 16 19 22 24 26 30 31 36 32 22 18 12 11 12 12 13 9 9 5 5 11 16 19 22 28 29 26 23 14 14 13
15 15 18 24 28 31 34 37 38 38 35 25 19 17 14 9 1 6 9 9 10 17 20 28 29 28 30 29 28 28 26 24
20 24 26 26 27 18 18 28 39 40 37 22 20 19 13 8 9 5 8 12 15 23 28 30 29 31 30 29 29 28 26 24

GFSFLT2_925_spd_006.txt.gz
Wind_Speed
13 12 11 9 8 6 4 4 4 5 5 5 4 4 3 2 1 2 2 3 3 4 4 3 6 8 9 11 13 13 13 18
13 12 10 8 8 7 5 5 4 3 4 5 4 4 4 4 4 3 3 2 3 4 3 3 4 5 5 8 10 11 13 12
14 12 8 6 6 7 7 6 7 5 4 7 6 4 2 4 3 5 6 6 5 5 6 7 6 5 6 8 10 12 12 13
12 9 7 7 6 8 7 6 5 6 6 6 7 5 3 4 2 4 5 5 5 6 6 8 9 8 9 9 11 13 14 16
10 6 6 9 7 11 10 7 8 8 7 7 8 6 6 8 6 5 4 3 5 4 6 10 11 13 15 16 13 11 14 14
9 5 7 7 5 8 8 9 11 10 7 7 6 7 6 7 6 5 5 3 3 4 5 6 8 10 11 12 12 17 21 21
10 3 5 7 6 9 10 12 14 13 11 10 8 9 8 8 7 6 4 4 4 6 8 7 9 11 12 13 16 17 16 15
12 8 5 7 7 7 7 9 10 9 10 9 8 9 9 9 9 8 7 5 6 6 6 7 8 10 11 13 14 16 18 19
15 10 6 5 7 8 8 10 11 12 11 9 8 10 10 10 10 11 9 7 6 4 5 5 8 9 11 11 13 12 15 19
14 8 7 6 6 8 8 11 11 12 13 13 11 12 10 12 11 11 8 7 6 4 4 6 8 10 12 13 15 17 18 19
12 8 7 4 5 8 9 10 14 15 15 16 15 14 13 11 12 11 8 9 9 7 5 7 8 10 13 14 15 15 17 20
9 6 4 7 9 9 12 16 14 16 16 20 20 17 14 15 13 14 11 12 12 10 8 6 8 10 12 15 13 15 18 13
5 5 7 9 11 14 15 19 19 21 20 19 24 22 20 17 18 15 16 14 15 13 9 8 9 9 11 15 16 18 11 23
7 6 8 12 15 19 20 23 24 24 25 24 26 28 28 25 23 21 19 18 17 14 10 7 7 7 5 6 4 15 17 16
9 9 11 14 19 21 24 25 25 27 29 28 31 31 32 31 30 26 23 21 21 17 12 9 4 2 6 2 3 3 15 18
13 13 15 17 20 24 29 33 28 36 38 36 32 26 35 34 32 28 23 21 15 11 8 4 2 2 10 7 16 15 5 11
14 15 18 18 21 23 26 30 39 42 40 36 35 32 32 36 32 29 22 20 16 9 1 4 9 11 15 19 24 24 21 8
6 10 13 16 19 23 28 32 38 37 39 41 36 30 25 29 28 22 18 15 13 8 6 8 14 18 22 26 25 13 14 11
13 14 17 21 24 27 31 34 30 33 36 33 28 22 18 19 20 14 13 10 9 9 12 17 28 27 25 24 28 27 26 23
14 15 23 27 27 29 30 24 22 22 23 25 21 20 20 18 17 10 6 10 12 17 24 26 23 22 25 28 30 30 31 29

GFSFLT2_925_spd_009.txt.gz
Wind_Speed
13 11 9 7 4 4 4 4 4 3 3 3 3 3 2 1 1 1 1 3 6 7 8 7 7 8 9 9 6 8 10 14
14 11 8 6 5 3 3 4 4 4 4 4 4 2 1 1 0 1 2 2 4 4 4 4 3 5 7 9 8 7 8 10
13 11 7 6 6 5 4 3 2 2 3 4 4 2 0 1 1 2 3 4 4 5 5 4 5 5 8 10 11 11 11 11
14 11 9 8 8 7 6 7 5 4 3 5 5 4 4 3 4 5 6 5 5 5 6 7 8 8 10 11 13 15 15 14
13 11 11 12 11 12 11 9 8 7 6 7 8 8 8 9 9 8 7 6 7 7 6 6 8 10 11 12 13 15 17 18
15 12 12 11 8 12 13 11 12 11 9 8 9 10 10 10 9 9 8 7 7 8 8 9 8 8 11 13 13 13 14 15
17 13 12 8 8 10 12 12 14 13 12 11 11 11 11 11 10 10 8 7 7 6 8 10 11 11 10 11 13 13 13 14
18 14 11 9 9 9 8 10 12 14 13 12 12 12 14 13 12 12 10 8 6 7 6 6 7 9 9 10 11 11 12 13
20 14 9 7 8 8 9 9 11 13 14 14 13 13 14 13 14 14 13 10 8 7 6 5 5 5 6 8 10 10 11 13
17 12 9 9 8 7 8 10 11 12 13 15 15 14 14 15 15 15 13 12 12 10 7 5 5 6 7 8 9 10 10 13
16 11 9 8 7 7 9 11 12 14 16 18 18 17 17 16 17 16 15 14 14 13 10 8 8 7 8 9 11 11 12 15
13 11 10 9 7 9 11 14 16 17 19 22 21 22 21 20 20 19 19 18 18 17 16 12 10 9 10 12 11 10 14 10
13 10 9 10 8 10 13 17 19 21 21 23 25 27 27 26 25 24 23 24 23 22 20 17 15 11 10 10 8 13 5 9
12 10 9 9 9 10 14 17 22 24 25 27 29 30 30 33 33 31 30 30 28 26 26 21 18 13 6 2 3 4 5 15
12 11 11 12 14 15 20 23 25 28 32 33 36 35 35 39 40 39 36 35 36 34 31 26 19 11 7 5 1 3 6 8
12 14 14 15 15 17 21 26 26 35 36 37 40 39 38 41 44 46 43 36 33 31 26 22 15 11 4 8 2 4 3 4
10 11 12 12 15 18 22 25 28 32 34 37 38 38 39 39 40 44 40 28 22 17 14 10 7 7 3 2 9 7 8 5
12 9 10 14 19 22 27 31 35 32 31 31 33 33 31 31 35 28 23 17 17 9 5 5 6 9 8 10 10 5 9 6
8 11 18 24 29 29 29 30 30 27 27 28 28 27 22 14 16 21 22 18 11 6 13 15 18 21 23 22 25 20 21 18
14 19 25 28 27 26 25 26 28 29 29 24 21 12 12 20 23 16 12 8 14 17 17 17 17 14 13 17 20 22 21 20

GFSFLT2_925_spd_012.txt.gz
Wind_Speed
11 9 7 4 3 2 3 2 2 2 3 2 1 1 2 2 2 2 2 3 4 5 6 5 6 6 6 7 7 7 7 9
11 8 5 3 2 2 3 3 3 3 2 3 2 2 3 3 3 4 4 5 6 6 7 7 6 6 7 7 6 7 7 9
11 9 6 3 1 1 1 1 2 4 4 5 4 3 3 4 4 5 5 5 6 7 8 7 7 7 7 9 8 7 7 8
13 10 7 5 4 4 3 2 4 5 6 6 6 5 5 5 6 7 8 8 6 6 6 9 9 9 9 9 11 11 10 9
15 11 10 8 9 9 8 7 8 8 7 7 9 9 9 9 9 9 9 9 8 8 7 6 8 10 10 11 12 12 11 10
15 13 10 9 10 12 12 11 10 10 10 10 10 10 11 12 11 11 11 10 10 9 8 9 8 9 10 9 9 9 11 11
18 14 11 10 10 11 12 12 12 12 13 12 12 12 13 14 14 14 13 12 11 10 9 10 8 6 5 5 6 7 7 8
18 15 12 9 7 8 8 10 11 13 14 14 14 15 16 16 15 15 15 14 13 12 10 9 8 7 6 6 6 6 6 8
20 14 11 8 7 8 8 8 10 12 14 15 16 16 16 17 16 17 17 16 14 13 12 11 9 7 6 5 6 6 5 5
16 12 9 8 7 8 9 10 11 12 14 15 17 18 17 17 18 18 17 18 17 15 14 12 10 9 8 6 5 5 3 6
16 13 10 8 8 8 11 12 13 13 14 17 19 21 21 21 22 21 19 19 20 19 18 16 14 12 10 9 8 7 5 3
15 13 11 9 8 9 11 13 14 15 15 19 21 23 25 27 27 26 23 23 24 22 22 20 19 15 13 13 13 11 10 6
15 13 11 10 9 11 12 15 15 17 17 21 24 27 29 30 31 31 29 29 30 28 26 24 23 19 13 13 15 15 16 12
14 12 11 11 13 11 11 14 18 23 26 28 29 30 34 36 37 38 37 35 35 33 31 29 27 22 9 3 2 5 14 14
10 10 11 11 12 15 17 20 22 26 30 30 31 35 36 35 39 45 45 42 41 40 38 36 29 24 23 8 1 5 1 6
9 10 8 7 9 13 15 19 23 29 29 31 30 28 31 31 31 35 44 46 43 42 38 33 25 16 13 14 5 2 3 3
10 12 12 14 18 21 22 24 25 27 29 28 28 29 27 28 28 27 33 36 35 29 19 15 13 9 2 0 5 3 6 3
16 17 20 22 23 23 22 22 25 28 30 30 32 31 28 26 24 20 17 12 9 14 17 14 10 8 6 8 5 4 3 3
18 19 22 24 21 18 19 21 26 31 33 34 34 30 24 19 12 5 15 18 15 13 14 14 10 9 8 8 8 10 10 12
19 18 23 24 20 20 20 23 27 30 32 34 32 20 10 4 15 16 12 10 9 13 13 11 5 6 7 8 12 15 15 14

GFSFLT2_925_spd_015.txt.gz
Wind_Speed
11 9 6 4 4 4 3 3 2 3 3 2 1 2 2 3 3 3 3 5 5 5 5 4 4 4 4 4 3 2 2 3
10 7 5 3 3 3 3 3 2 2 2 2 3 4 5 4 4 4 5 6 7 6 5 5 4 5 4 3 3 3 4 4
10 8 5 3 3 2 2 1 0 2 3 4 4 4 4 5 5 5 6 6 7 8 8 6 5 6 7 6 6 6 5 5
12 10 7 4 3 3 2 2 2 3 5 6 5 5 7 7 8 9 9 9 9 9 9 9 9 7 7 8 5 6 5 5
15 11 9 7 6 6 6 5 5 5 6 7 8 8 9 9 10 11 10 10 10 10 10 9 9 9 8 8 8 6 4 3
16 13 11 9 8 8 9 9 8 8 9 9 10 11 10 11 12 12 12 12 11 11 11 11 10 9 9 8 7 5 2 2
16 14 12 9 7 8 9 10 10 10 11 12 12 12 13 13 14 14 14 14 13 12 11 12 11 8 6 5 4 3 2 2
17 15 11 8 6 7 7 9 10 11 11 12 13 14 16 17 17 17 17 16 15 15 13 12 11 10 7 5 4 3 2 1
18 16 11 9 8 7 6 7 9 10 11 12 13 14 16 18 19 19 19 18 18 17 16 14 13 12 10 8 6 4 4 3
19 17 12 10 9 8 8 9 9 11 12 14 14 15 17 19 21 22 21 20 20 19 17 16 15 13 12 9 8 7 6 5
19 16 13 11 10 9 8 9 9 10 13 15 17 17 19 22 24 25 24 23 24 22 20 20 16 15 14 13 13 11 9 8
15 14 13 12 11 9 10 9 10 12 14 17 19 21 22 24 27 30 29 28 28 27 25 22 22 18 15 15 15 14 14 13
14 14 11 10 8 8 8 8 12 15 18 22 23 24 24 26 28 30 30 30 33 32 28 24 21 21 12 17 18 18 18 16
6 3 4 6 9 10 12 16 15 18 20 23 24 26 28 27 25 26 27 25 28 34 30 24 20 20 17 16 7 12 14 17
5 6 7 8 8 10 11 11 13 14 18 23 25 22 21 24 24 24 25 24 26 29 29 29 28 21 24 16 6 10 7 9
9 13 14 13 12 12 13 11 12 14 17 20 26 26 27 27 27 26 25 22 23 23 23 25 24 26 15 20 12 8 9 9
14 13 15 15 16 16 14 12 11 17 22 26 28 27 28 27 25 25 23 19 17 15 15 13 15 22 18 11 10 7 4 8
13 14 14 17 17 15 14 14 19 21 25 29 31 29 29 28 22 17 13 6 4 9 10 10 7 6 4 4 2 5 4 3
14 16 16 19 18 19 20 21 23 24 28 29 29 28 21 18 11 4 6 12 12 10 9 8 10 9 9 7 5 3 2 2
16 16 16 19 21 20 19 20 24 28 26 28 26 23 16 6 3 6 7 5 5 6 8 9 8 9 9 8 6 5 5 7

GFSFLT2_925_spd_021.txt.gz
Wind_Speed
10 7 6 6 5 6 6 7 6 6 6 5 5 5 4 4 3 3 3 3 4 4 4 4 4 5 6 6 7 7 8 9
8 7 7 5 3 4 5 5 5 6 5 5 6 5 8 8 6 5 5 5 5 6 6 6 6 7 7 7 7 7 6 8
6 6 5 4 4 4 4 6 6 7 6 9 5 3 5 4 4 6 6 7 7 8 8 9 9 7 8 9 11 8 7 9
9 5 4 3 3 2 1 0 2 3 4 5 5 6 5 7 4 11 8 9 10 7 9 12 6 9 10 9 8 9 11 10
9 6 4 1 4 4 1 2 2 2 3 5 6 7 6 8 7 7 7 11 8 9 10 9 9 10 10 11 11 12 11 11
8 6 6 4 1 3 3 2 1 3 5 5 7 7 8 8 9 11 11 10 11 11 12 11 12 12 12 12 11 11 11 11
9 8 8 5 3 2 3 2 1 2 2 4 5 6 7 9 10 11 11 12 12 13 13 14 14 14 13 12 13 12 12 11
9 8 8 6 4 2 3 2 2 1 0 2 3 4 6 8 10 11 12 13 13 14 15 16 16 15 15 14 14 14 13 13
7 8 8 9 6 4 3 2 2 2 2 1 1 3 6 9 11 13 14 15 16 17 17 17 17 17 18 16 16 16 15 15
6 8 9 10 6 4 3 3 4 4 5 5 5 5 7 10 13 15 16 17 18 19 20 20 21 21 20 19 19 18 17 17
6 8 8 8 5 5 4 5 6 6 6 7 6 8 9 11 13 16 17 19 21 21 22 21 23 23 24 24 22 21 20 21
2 5 6 3 3 4 6 6 7 7 8 9 8 11 11 13 15 16 18 20 21 22 22 24 25 26 28 27 26 24 23 23
5 5 3 3 4 5 6 6 7 10 10 8 10 10 12 15 17 19 19 19 20 22 23 23 25 25 26 25 27 28 28 27
7 5 4 3 3 5 5 7 9 10 9 9 12 10 13 14 16 18 22 21 22 22 23 24 24 24 23 23 13 21 26 31
8 7 6 7 6 5 7 9 9 11 11 18 18 19 18 17 17 17 22 23 23 21 22 23 23 25 24 22 13 13 14 24
8 6 5 6 8 5 6 8 12 15 17 18 19 22 21 19 20 20 20 22 22 21 21 19 20 24 24 26 25 18 7 11
6 5 6 6 6 6 9 13 15 17 17 17 19 21 20 22 21 21 20 19 18 15 11 10 11 12 12 15 17 18 16 5
6 7 8 8 10 10 11 13 14 16 17 19 19 21 23 22 22 19 18 15 11 6 6 6 7 6 7 8 6 4 6 4
9 11 13 12 12 12 13 14 16 17 19 20 23 24 24 24 20 17 14 7 4 4 4 5 6 9 6 5 3 2 1 1
10 13 15 17 16 16 16 17 18 19 20 23 24 23 23 21 16 12 7 3 2 6 5 6 7 6 5 6 6 5 5 5

GFSFLT2_925_spd_024.txt.gz
Wind_Speed
13 12 12 12 11 10 9 9 10 8 8 7 6 8 7 8 6 7 7 6 7 7 6 6 7 7 8 9 9 9 10 7
13 8 8 8 8 8 8 8 8 9 12 9 7 7 8 8 8 11 9 8 8 9 9 9 8 8 7 9 12 10 7 11
9 14 10 5 7 8 7 6 7 7 9 10 5 7 6 4 8 10 9 10 12 8 10 13 10 7 8 7 11 7 12 9
10 11 8 5 6 2 6 3 6 6 6 6 9 6 1 6 7 8 7 13 13 7 11 12 10 11 12 10 10 11 13 11
16 10 6 2 6 3 5 4 5 4 8 5 5 5 5 7 9 8 12 13 8 11 14 13 7 15 13 14 15 15 14 15
18 13 9 4 2 5 5 3 6 4 7 4 3 4 4 5 5 7 9 10 11 10 11 11 15 14 12 14 15 15 15 17
17 15 9 5 2 3 1 2 3 3 3 2 1 2 2 3 5 7 8 10 11 10 11 14 15 15 16 15 13 15 16 17
18 20 17 10 5 4 2 4 1 3 3 2 2 1 3 3 5 8 10 12 14 16 19 18 16 16 17 18 19 17 18 18
18 8 15 12 6 5 2 2 3 1 2 1 2 3 5 7 8 10 11 14 16 18 19 18 20 20 21 20 20 23 22 18
10 11 10 9 7 6 3 1 2 4 5 5 5 5 5 8 11 13 15 17 19 20 22 22 21 22 23 23 22 23 21 22
8 3 7 6 8 3 2 4 4 6 3 5 1 3 7 10 13 16 18 19 20 21 22 23 21 22 23 23 25 26 26 24
5 8 9 5 5 0 4 6 6 8 6 3 4 8 5 8 14 16 18 19 20 20 22 22 24 25 26 27 29 31 30 24
15 11 10 5 3 4 7 10 10 9 7 8 6 11 12 13 15 18 19 22 22 23 21 22 25 24 27 24 25 27 30 34
12 12 10 9 9 6 6 7 6 9 10 5 12 11 12 15 19 23 18 21 22 23 23 24 23 21 22 20 9 18 23 28
13 11 9 10 8 7 7 8 9 10 12 17 17 15 22 23 19 18 19 19 18 22 24 25 20 20 18 17 7 8 12 21
10 7 7 7 8 7 9 13 14 17 17 19 22 19 20 17 21 22 21 19 19 21 16 13 14 17 19 13 18 14 4 7
6 6 3 2 4 7 9 12 15 16 17 16 20 15 21 22 23 24 22 20 20 13 8 12 15 16 17 16 19 21 4 4
5 8 10 10 7 8 9 10 12 14 16 18 16 20 22 23 24 22 24 19 7 5 8 10 9 12 13 13 8 4 4 2
4 8 12 13 15 12 9 9 12 14 17 17 21 23 22 24 24 21 12 11 9 8 9 7 11 10 9 10 9 6 3 2
11 11 13 15 13 13 15 14 12 14 15 19 19 19 20 22 14 12 10 7 6 4 5 8 12 14 13 12 12 13 11 11

GFSFLT2_925_spd_027.txt.gz
Wind_Speed
19 18 16 15 14 15 14 14 13 13 12 11 12 11 11 11 10 9 8 7 7 7 8 10 10 9 8 10 12 11 9 8
17 16 14 14 15 14 14 14 15 16 14 13 10 8 8 9 8 9 9 11 10 8 11 13 11 10 8 10 12 11 10 12
15 15 11 13 14 12 13 13 13 13 10 8 10 5 5 7 5 6 7 10 8 8 13 11 11 9 11 13 12 14 13 13
20 16 10 9 8 7 9 10 10 12 9 10 9 4 4 3 4 5 9 10 7 7 12 11 10 8 13 16 13 14 15 14
19 13 12 7 6 6 8 10 10 11 9 8 7 3 5 4 4 5 8 8 8 11 10 11 12 15 18 16 13 16 19 17
21 16 17 10 8 10 11 13 13 14 10 8 6 6 4 3 1 2 5 7 10 11 8 9 14 15 17 19 18 17 15 15
26 22 19 14 10 7 5 6 10 9 9 3 6 4 1 2 1 3 4 6 7 9 12 18 18 17 18 20 20 19 21 18
30 24 14 8 10 8 6 7 5 9 8 6 3 3 1 2 4 6 9 11 13 14 17 20 19 19 21 21 22 22 24 24
26 22 10 8 12 9 5 11 8 7 7 4 3 4 5 6 8 9 11 14 17 19 21 21 22 24 23 23 23 25 27 27
30 24 6 25 15 11 7 9 6 4 4 5 5 4 2 4 8 11 13 16 20 22 22 24 24 24 24 22 22 25 28 31
9 11 21 22 17 8 7 3 2 6 1 2 9 5 3 6 7 13 16 18 19 21 23 23 24 27 30 28 27 28 29 30
22 20 19 14 11 7 2 1 1 4 3 4 2 4 7 10 13 15 15 19 23 23 25 26 29 30 30 30 30 30 28 28
22 19 16 17 15 11 9 10 8 8 7 6 9 6 6 10 13 15 19 18 18 23 25 24 27 28 31 25 22 23 24 24
20 16 13 13 13 12 10 11 13 10 14 14 15 18 17 15 15 17 17 17 18 18 20 25 23 14 13 17 6 14 16 17
16 13 12 10 10 8 8 8 11 15 21 22 19 17 15 18 20 21 20 19 17 19 16 12 10 12 18 10 4 4 17 15
11 7 5 7 9 8 8 8 12 15 14 16 15 14 18 21 24 25 26 24 22 17 8 10 11 14 15 18 12 9 3 8
8 11 7 4 3 5 6 6 8 7 10 11 14 18 23 26 28 26 25 21 17 10 9 12 13 14 14 15 17 19 6 3
4 6 10 14 11 8 8 7 6 8 7 10 15 19 21 22 23 20 16 13 11 11 10 8 9 11 15 14 10 5 7 4
5 7 7 9 8 10 10 9 9 11 12 15 16 18 22 21 16 17 17 11 9 8 9 11 14 13 15 15 14 13 12 10
5 6 9 9 9 11 10 12 10 10 11 15 16 16 14 12 13 13 13 10 9 12 15 16 14 17 14 13 17 17 16 21

GFSFLT2_925_spd_030.txt.gz
Wind_Speed
20 19 17 15 15 15 15 14 14 13 14 13 13 12 13 11 10 10 10 8 7 9 11 10 9 10 8 11 12 12 12 10
22 19 17 14 15 16 16 17 15 15 14 11 10 10 9 8 7 8 9 7 8 9 11 10 10 9 11 14 13 13 12 12
20 17 15 15 15 15 15 14 14 13 11 9 7 7 6 5 4 5 4 5 4 6 8 7 7 7 11 15 16 15 14 14
21 17 16 15 15 14 12 12 12 11 8 8 5 5 4 3 1 2 3 5 4 6 7 8 9 10 12 13 15 16 15 15
24 19 15 13 12 13 11 11 12 10 7 7 6 4 4 4 3 2 2 5 7 9 9 8 10 14 16 16 15 16 16 16
27 22 18 13 10 10 11 12 13 12 8 8 5 8 6 4 2 2 5 6 10 9 8 10 16 19 19 19 19 19 17 19
28 24 20 16 14 12 10 13 16 14 13 9 8 9 6 5 3 3 5 8 9 10 13 16 20 20 20 21 22 23 23 21
27 21 15 12 11 9 9 10 13 13 14 9 8 9 6 6 4 4 6 8 11 14 16 19 21 23 26 25 25 24 25 26
29 24 18 14 14 11 6 9 10 12 13 11 9 8 7 6 7 7 9 11 13 15 17 18 20 22 23 23 24 24 24 25
31 29 18 12 11 10 7 9 10 6 12 11 9 8 7 6 6 7 9 11 13 16 19 20 22 24 28 29 26 25 25 27
28 15 10 12 8 9 6 7 4 3 2 6 4 2 2 5 7 9 11 14 16 18 20 22 25 29 29 27 28 25 25 26
14 10 8 9 9 7 5 6 15 13 12 9 6 7 7 8 10 12 14 15 15 17 20 21 23 25 29 30 26 27 28 24
24 22 15 13 12 9 11 17 19 17 15 13 11 10 10 11 13 14 16 17 16 16 18 22 22 23 25 25 25 23 18 15
23 20 18 17 16 15 14 12 12 14 13 11 10 10 11 12 15 18 19 19 19 18 20 18 12 14 10 11 5 20 10 26
16 16 15 13 12 10 10 10 10 11 12 9 9 9 11 15 19 22 22 20 19 19 17 14 10 7 9 6 3 3 14 9
12 9 10 8 8 9 8 5 3 2 3 5 7 10 14 18 22 26 22 21 19 14 9 9 8 5 4 7 5 4 3 6
11 11 7 5 4 4 3 4 4 5 2 4 9 13 17 19 19 17 16 14 12 9 7 4 6 6 8 5 7 10 4 2
7 8 10 6 5 5 6 6 6 3 6 11 15 16 17 17 16 15 16 17 11 7 6 7 9 14 12 12 8 5 5 5
6 6 9 9 6 5 4 5 3 4 8 9 9 10 11 11 11 12 13 13 10 9 11 17 13 12 19 19 15 13 14 16
5 8 9 7 7 8 7 7 7 7 3 2 2 5 7 11 13 11 11 9 10 10 12 12 18 15 16 15 16 15 15 17

GFSFLT2_925_spd_033.txt.gz
Wind_Speed
19 17 16 16 16 16 15 14 13 13 13 12 12 12 10 10 10 10 9 9 10 11 11 12 13 12 13 14 15 14 13 11
19 17 16 16 16 15 14 14 13 13 12 10 11 9 8 8 8 7 6 7 7 8 9 9 10 11 12 13 14 15 13 13
20 18 17 17 16 16 15 13 13 11 10 8 7 6 5 4 4 3 2 4 3 4 4 5 7 8 10 12 12 13 14 14
22 20 19 18 18 17 15 13 12 9 8 6 5 5 3 2 1 1 3 3 5 6 7 8 9 10 13 13 14 14 15 16
24 20 18 17 17 17 16 14 11 10 8 6 5 5 6 5 3 3 5 7 9 10 10 8 10 13 16 17 16 16 17 17
23 22 20 18 16 17 15 15 13 11 8 7 7 7 6 5 3 2 5 8 9 9 10 12 14 16 18 17 18 20 21 21
26 24 21 18 17 16 16 16 15 12 11 9 8 8 7 5 3 2 6 8 9 9 11 13 15 17 18 20 20 20 20 21
29 26 21 17 16 13 13 14 13 14 13 12 9 10 8 6 6 5 6 8 10 11 12 14 16 19 21 22 23 23 22 21
30 27 19 12 11 8 8 9 9 11 11 11 9 9 7 6 5 4 6 8 11 13 14 16 18 19 20 23 24 25 26 26
28 25 17 6 5 4 2 6 5 6 10 8 6 5 3 2 3 6 8 11 14 16 17 19 19 21 24 26 27 25 23 23
22 19 10 3 3 6 9 8 7 8 5 5 8 7 5 4 8 11 13 14 15 16 18 19 22 25 27 28 27 27 24 19
15 5 9 5 11 17 15 18 19 16 14 11 8 9 10 11 13 15 16 17 18 19 20 21 22 19 23 19 22 23 12 15
16 14 14 10 12 11 15 20 17 14 12 9 9 10 13 15 14 14 16 19 20 20 22 23 21 21 15 23 20 4 23 14
19 19 16 15 16 15 12 11 10 7 6 7 9 9 7 9 11 14 19 22 21 18 16 15 15 14 10 11 4 13 5 31
18 16 14 11 9 8 6 4 3 1 1 3 4 6 8 12 16 19 18 16 15 14 13 12 12 13 10 5 4 3 6 6
16 15 12 10 7 3 2 4 5 3 5 3 4 8 12 15 16 14 14 14 14 13 10 9 9 10 12 7 9 8 3 5
14 13 11 10 7 6 6 6 5 5 2 2 7 11 13 12 10 10 10 12 11 7 5 4 4 6 8 9 11 11 6 4
10 10 8 6 5 5 6 7 8 5 0 6 11 12 11 12 13 12 12 10 9 8 4 4 11 9 8 13 12 8 7 7
7 6 8 6 5 4 4 5 4 0 5 9 11 12 11 11 10 13 11 10 8 7 8 9 9 15 14 14 14 16 18 16
5 8 6 6 7 6 6 4 2 6 8 11 11 11 10 11 13 10 9 8 8 8 10 11 12 12 12 11 13 12 11 12

GFSFLT2_925_spd_036.txt.gz
Wind_Speed
18 16 15 15 15 15 14 13 12 12 11 12 12 11 11 11 11 11 13 12 13 13 13 13 14 13 14 14 15 16 15 15
17 16 16 16 15 14 14 13 12 12 12 11 9 10 10 9 8 9 9 9 8 8 9 10 11 12 14 14 15 15 15 16
17 17 16 16 15 15 14 13 12 12 11 9 8 7 6 6 5 4 4 5 4 4 5 7 9 10 12 13 15 16 17 17
18 18 18 18 17 17 15 16 13 12 10 8 7 5 3 1 1 1 2 3 4 5 6 6 7 9 11 11 12 14 16 17
21 19 19 19 19 18 17 15 13 11 10 8 7 5 3 2 2 3 3 3 4 5 5 5 7 10 11 13 13 14 16 17
22 21 20 19 17 16 15 14 12 11 9 7 6 6 4 3 2 2 2 3 4 5 6 8 9 10 13 14 16 16 16 17
22 20 19 16 14 14 14 13 13 9 8 7 5 4 3 2 1 1 3 4 6 7 8 9 11 14 16 19 19 18 18 19
21 18 13 11 10 11 14 15 13 11 9 8 6 4 3 1 1 3 4 7 8 9 11 12 14 16 17 18 19 20 20 20
20 16 8 3 2 3 6 7 9 11 9 6 4 2 1 3 3 3 7 9 10 11 12 13 15 16 17 19 20 22 21 20
13 15 10 10 9 9 5 2 2 3 4 3 4 5 6 5 6 8 9 10 12 14 15 16 17 19 20 21 22 22 18 13
20 18 13 9 14 8 4 7 11 12 11 11 10 9 10 9 9 9 12 14 15 16 18 18 20 20 20 19 17 18 10 10
21 15 7 6 10 15 17 17 17 14 12 11 10 10 9 10 12 12 14 16 19 20 18 17 16 13 17 9 13 8 8 16
14 7 15 23 19 17 15 16 13 10 8 6 5 5 6 8 9 12 17 20 20 17 15 15 13 16 6 17 11 2 19 10
22 21 20 18 17 13 8 8 7 6 4 3 4 5 8 12 15 18 19 18 17 15 14 13 10 14 9 7 3 10 3 27
23 20 16 11 8 7 6 5 3 3 2 1 4 6 10 13 15 15 14 15 16 14 13 11 9 8 11 3 3 2 7 4
15 14 12 10 8 5 4 4 4 4 3 2 4 8 13 15 14 14 16 17 15 13 11 9 7 6 7 5 7 8 2 3
11 10 8 5 3 3 4 4 2 4 3 2 6 11 13 14 11 11 11 11 9 9 9 7 5 8 9 7 9 10 10 5
9 8 6 5 4 3 4 3 3 3 1 5 10 13 14 14 13 12 12 14 10 10 8 6 10 9 10 12 12 6 10 8
8 5 5 3 2 2 2 3 2 3 6 10 14 14 16 16 14 14 15 11 9 8 9 11 12 12 14 14 12 11 12 11
6 6 4 3 2 2 1 3 5 8 11 11 14 16 17 18 19 18 14 12 10 10 10 12 13 14 15 15 14 14 12 10